Wahpeton, MN

11:44 AM CST on November 15, 2019 (GMT -0600)
Stern

Weather History for KBWP - September, 2019

Change the Weather History Date:

Thursday, September 5, 2019

  Actual Average (WUND) Record (WUND)
Temperature  
Mean Temperature 68 °F -  
Max Temperature 78 °F - - (-1)
Min Temperature 59 °F - - (-1)
Cooling Degree Days 4    
Growing Degree Days 18 (Base 50)    
Moisture  
Dew Point 57 °F    
Average Humidity 74    
Maximum Humidity 88    
Minimum Humidity 51    
Precipitation  
Precipitation 0.00 in - - ()
Sea Level Pressure  
Sea Level Pressure 29.94 in    
Wind  
Wind Speed 10 mph ()    
Max Wind Speed 22 mph    
Max Gust Speed 25 mph    
Visibility 10.0 miles    
Events      
Averages and records for this station are not official NWS values.
T = Trace of Precipitation, MM = Missing Value Source: Averaged Metar Reports

Daily Weather History Graph

Daily Weather History Graph

Search for Another Location

Airport or City:

Astronomy

Sep. 05, 2019 Rise Set
Actual Time 6:51 AM CDT 7:57 PM CDT
Civil Twilight 6:20 AM CDT 8:28 PM CDT
Nautical Twilight 5:43 AM CDT 9:05 PM CDT
Astronomical Twilight 5:04 AM CDT 9:44 PM CDT
Moon 2:23 PM CDT (9/5) 11:49 PM CDT (9/5)
Length of Visible Light 14h 07m
Length of Day
13h 06m
Waxing Crescent, 45% of the Moon is Illuminated
Sep 5
Waxing Crescent
Sep 5
First Quarter
Sep 13
Full
Sep 21
Last Quarter
Sep 28
New

Hourly Weather History & Observations

Time (CDT) Temp. Dew Point Humidity Pressure Visibility Wind Dir Wind Speed Gust Speed Precip Events Conditions
12:15 AM 59.0 °F 53.6 °F 82% 29.98 in 10.0 mi ESE 9.2 mph - N/A   Unknown
12:35 AM 59.0 °F 53.6 °F 82% 29.98 in 10.0 mi ESE 8.1 mph - N/A   Unknown
12:55 AM 59.0 °F 53.6 °F 82% 29.98 in 10.0 mi ESE 9.2 mph - N/A   Unknown
1:15 AM 59.0 °F 53.6 °F 82% 29.98 in 10.0 mi SE 10.4 mph - N/A   Unknown
1:35 AM 59.0 °F 53.6 °F 82% 29.97 in 10.0 mi SE 10.4 mph - N/A   Unknown
1:55 AM 59.0 °F 53.6 °F 82% 29.95 in 10.0 mi SE 12.7 mph 18.4 mph N/A   Unknown
2:15 AM 59.0 °F 53.6 °F 82% 29.96 in 10.0 mi SE 11.5 mph - N/A   Unknown
2:35 AM 59.0 °F 53.6 °F 82% 29.95 in 10.0 mi SE 11.5 mph - N/A   Unknown
2:55 AM 59.0 °F 53.6 °F 82% 29.93 in 10.0 mi SE 13.8 mph - N/A   Unknown
3:15 AM 59.0 °F 53.6 °F 82% 29.92 in 10.0 mi SE 10.4 mph - N/A   Unknown
3:35 AM 59.0 °F 53.6 °F 82% 29.92 in 10.0 mi SE 12.7 mph - N/A   Unknown
3:55 AM 59.0 °F 53.6 °F 82% 29.90 in 10.0 mi SSE 12.7 mph - N/A   Unknown
4:15 AM 59.0 °F 53.6 °F 82% 29.88 in 10.0 mi SSE 15.0 mph - N/A   Unknown
4:35 AM 59.0 °F 53.6 °F 82% 29.88 in 10.0 mi SSE 11.5 mph - N/A   Unknown
4:55 AM 59.0 °F 53.6 °F 82% 29.87 in 10.0 mi SSE 12.7 mph 19.6 mph N/A   Unknown
5:15 AM 59.0 °F 53.6 °F 82% 29.87 in 10.0 mi SE 8.1 mph - N/A   Unknown
5:35 AM 59.0 °F 53.6 °F 82% 29.87 in 10.0 mi SE 10.4 mph - N/A   Unknown
5:55 AM 59.0 °F 53.6 °F 82% 29.87 in 10.0 mi SSE 9.2 mph - N/A   Unknown
6:15 AM 59.0 °F 55.4 °F 88% 29.85 in 10.0 mi SSE 12.7 mph - N/A   Unknown
6:35 AM 59.0 °F 55.4 °F 88% 29.86 in 10.0 mi SSE 9.2 mph - N/A   Unknown
6:55 AM 59.0 °F 55.4 °F 88% 29.86 in 10.0 mi SSE 9.2 mph - N/A   Unknown
7:15 AM 59.0 °F 55.4 °F 88% 29.87 in 10.0 mi SSE 8.1 mph - N/A   Unknown
7:35 AM 59.0 °F 55.4 °F 88% 29.87 in 10.0 mi SSE 6.9 mph - N/A   Unknown
7:55 AM 60.8 °F 55.4 °F 82% 29.87 in 10.0 mi SSE 9.2 mph - N/A   Unknown
8:15 AM 60.8 °F 55.4 °F 82% 29.88 in 10.0 mi SSE 10.4 mph - N/A   Unknown
8:35 AM 62.6 °F 57.2 °F 82% 29.87 in 10.0 mi South 9.2 mph - N/A   Unknown
8:55 AM 64.4 °F 57.2 °F 77% 29.87 in 10.0 mi South 8.1 mph - N/A   Unknown
9:15 AM 66.2 °F 59.0 °F 78% 29.87 in 10.0 mi South 10.4 mph - N/A   Unknown
9:35 AM 68.0 °F 59.0 °F 73% 29.87 in 10.0 mi South 9.2 mph - N/A   Unknown
9:55 AM 69.8 °F 59.0 °F 68% 29.87 in 10.0 mi South 6.9 mph - N/A   Unknown
10:15 AM 69.8 °F 60.8 °F 73% 29.87 in 10.0 mi SSW 6.9 mph - N/A   Unknown
10:35 AM 71.6 °F 60.8 °F 69% 29.87 in 10.0 mi SSW 6.9 mph - N/A   Unknown
10:55 AM 73.4 °F 62.6 °F 69% 29.87 in 10.0 mi SSW 9.2 mph - N/A   Unknown
11:15 AM 73.4 °F 60.8 °F 65% 29.86 in 10.0 mi SW 11.5 mph - N/A   Unknown
11:35 AM 73.4 °F 60.8 °F 65% 29.87 in 10.0 mi WSW 11.5 mph - N/A   Unknown
11:55 AM 75.2 °F 62.6 °F 65% 29.87 in 10.0 mi West 13.8 mph 18.4 mph N/A   Unknown
12:15 PM 77.0 °F 62.6 °F 61% 29.87 in 10.0 mi West 11.5 mph 16.1 mph N/A   Unknown
12:35 PM 77.0 °F 62.6 °F 61% 29.87 in 10.0 mi WSW 10.4 mph - N/A   Unknown
12:55 PM 77.0 °F 62.6 °F 61% 29.87 in 10.0 mi West 11.5 mph 16.1 mph N/A   Unknown
1:15 PM 78.8 °F 60.8 °F 54% 29.88 in 10.0 mi WNW 16.1 mph 25.3 mph N/A   Unknown
1:35 PM 78.8 °F 60.8 °F 54% 29.88 in 10.0 mi WNW 17.3 mph 24.2 mph N/A   Unknown
1:55 PM 78.8 °F 60.8 °F 54% 29.89 in 10.0 mi WNW 18.4 mph 21.9 mph N/A   Unknown
2:15 PM 78.8 °F 59.0 °F 51% 29.90 in 10.0 mi NW 18.4 mph 24.2 mph N/A   Unknown
2:35 PM 78.8 °F 60.8 °F 54% 29.91 in 10.0 mi WNW 18.4 mph 25.3 mph N/A   Unknown
2:55 PM 77.0 °F 60.8 °F 57% 29.92 in 10.0 mi NNW 21.9 mph 25.3 mph N/A   Unknown
3:15 PM 73.4 °F 59.0 °F 61% 29.93 in 10.0 mi NNW 18.4 mph 24.2 mph N/A   Unknown
3:35 PM 73.4 °F 59.0 °F 61% 29.94 in 10.0 mi NNW 12.7 mph 20.7 mph N/A   Scattered Clouds
3:55 PM 73.4 °F 59.0 °F 61% 29.94 in 10.0 mi NW 16.1 mph 21.9 mph N/A   Unknown
4:15 PM 71.6 °F 59.0 °F 64% 29.95 in 10.0 mi NW 15.0 mph 21.9 mph N/A   Unknown
4:35 PM 73.4 °F 59.0 °F 61% 29.95 in 10.0 mi NW 17.3 mph 20.7 mph N/A   Unknown
4:55 PM 71.6 °F 59.0 °F 64% 29.96 in 10.0 mi NNW 13.8 mph 21.9 mph N/A   Unknown
5:15 PM 71.6 °F 59.0 °F 64% 29.96 in 10.0 mi NNW 15.0 mph 18.4 mph N/A   Unknown
5:35 PM 71.6 °F 59.0 °F 64% 29.97 in 10.0 mi NNW 16.1 mph - N/A   Unknown
5:55 PM 69.8 °F 59.0 °F 68% 29.98 in 10.0 mi NNW 15.0 mph 21.9 mph N/A   Unknown
6:15 PM 69.8 °F 57.2 °F 64% 29.99 in 10.0 mi NNW 12.7 mph 19.6 mph N/A   Unknown
6:35 PM 69.8 °F 57.2 °F 64% 29.99 in 10.0 mi NW 13.8 mph 18.4 mph N/A   Unknown
6:55 PM 68.0 °F 57.2 °F 68% 29.99 in 10.0 mi NW 11.5 mph 19.6 mph N/A   Unknown
7:15 PM 68.0 °F 57.2 °F 68% 30.00 in 10.0 mi NW 10.4 mph 17.3 mph N/A   Unknown
7:35 PM 68.0 °F 59.0 °F 73% 30.00 in 10.0 mi NW 9.2 mph - N/A   Unknown
7:55 PM 68.0 °F 59.0 °F 73% 30.01 in 10.0 mi NW 8.1 mph - N/A   Unknown
8:15 PM 68.0 °F 59.0 °F 73% 30.01 in 10.0 mi North 9.2 mph - N/A   Unknown
8:35 PM 66.2 °F 59.0 °F 78% 30.03 in 10.0 mi North 10.4 mph - N/A   Unknown
8:55 PM 64.4 °F 59.0 °F 83% 30.04 in 10.0 mi North 9.2 mph - N/A   Unknown
9:15 PM 64.4 °F 57.2 °F 77% 30.05 in 10.0 mi North 9.2 mph - N/A   Unknown
9:35 PM 62.6 °F 57.2 °F 82% 30.06 in 10.0 mi North 11.5 mph - N/A   Unknown
9:55 PM 62.6 °F 55.4 °F 77% 30.06 in 10.0 mi North 11.5 mph 17.3 mph N/A   Unknown
10:15 PM 60.8 °F 55.4 °F 82% 30.06 in 10.0 mi North 9.2 mph - N/A   Unknown
10:35 PM 60.8 °F 55.4 °F 82% 30.07 in 10.0 mi North 10.4 mph - N/A   Unknown
10:55 PM 60.8 °F 55.4 °F 82% 30.07 in 10.0 mi North 9.2 mph - N/A   Unknown
11:15 PM 60.8 °F 53.6 °F 77% 30.07 in 10.0 mi North 8.1 mph - N/A   Unknown
11:35 PM 59.0 °F 53.6 °F 82% 30.08 in 10.0 mi North 6.9 mph - N/A   Unknown
11:55 PM 59.0 °F 53.6 °F 82% 30.08 in 10.0 mi North 5.8 mph - N/A   Unknown